Meteo pe oră la Dziecielec

Astăzi, 5 Martie, Vineri

Timp Temperatura Precipitaţii Vânt Presiune Umiditate
00:00 -2°C° 0 mm 2 m/s 748 mmHg 79%
01:00 -2°C° 0 mm 2 m/s 749 mmHg 78%
02:00 -2°C° 0 mm 2 m/s 749 mmHg 78%
03:00 -2°C° 0 mm 2 m/s 749 mmHg 77%
04:00 -3°C° 0 mm 2 m/s 749 mmHg 76%
05:00 -2°C° 0.1 mm 2 m/s 749 mmHg 76%
06:00 -2°C° 0.1 mm 3 m/s 749 mmHg 75%
07:00 -2°C° 0.1 mm 3 m/s 750 mmHg 75%
08:00 -1°C° 0.1 mm 3 m/s 750 mmHg 66%
09:00 -1°C° 0.1 mm 4 m/s 750 mmHg 58%
10:00 0°C° 0.1 mm 4 m/s 751 mmHg 50%
11:00 0°C° 0.2 mm 4 m/s 751 mmHg 49%
12:00 0°C° 0.2 mm 5 m/s 751 mmHg 48%
13:00 +1°C° 0.2 mm 5 m/s 751 mmHg 47%
14:00 0°C° 0.1 mm 5 m/s 752 mmHg 52%
15:00 0°C° 0.1 mm 5 m/s 752 mmHg 58%
16:00 -1°C° 0.1 mm 5 m/s 752 mmHg 63%
17:00 -2°C° 0 mm 4 m/s 752 mmHg 67%
18:00 -1°C° 0 mm 3 m/s 753 mmHg 71%
19:00 -2°C° 0 mm 3 m/s 753 mmHg 76%
20:00 -2°C° 0 mm 2 m/s 754 mmHg 74%
21:00 -2°C° 0 mm 2 m/s 754 mmHg 73%
22:00 -2°C° 0 mm 2 m/s 755 mmHg 71%
23:00 -2°C° 0 mm 2 m/s 755 mmHg 71%

Mâine, 6 Martie, Sâmbătă

Timp Temperatura Precipitaţii Vânt Presiune Umiditate
00:00 -2°C° 0 mm 2 m/s 755 mmHg 71%
01:00 -3°C° 0 mm 2 m/s 756 mmHg 71%
02:00 -3°C° 0 mm 2 m/s 755 mmHg 71%
03:00 -3°C° 0 mm 2 m/s 755 mmHg 71%
04:00 -3°C° 0 mm 2 m/s 755 mmHg 71%
05:00 -2°C° 0 mm 2 m/s 755 mmHg 70%
06:00 -2°C° 0 mm 2 m/s 755 mmHg 69%
07:00 -2°C° 0 mm 3 m/s 756 mmHg 67%
08:00 -1°C° 0 mm 3 m/s 755 mmHg 62%
09:00 -1°C° 0 mm 4 m/s 755 mmHg 57%
10:00 0°C° 0 mm 4 m/s 755 mmHg 52%
11:00 +1°C° 0 mm 5 m/s 755 mmHg 51%
12:00 +1°C° 0 mm 6 m/s 754 mmHg 49%
13:00 +2°C° 0 mm 7 m/s 754 mmHg 48%
14:00 0°C° 0 mm 7 m/s 753 mmHg 59%
15:00 -1°C° 0 mm 7 m/s 753 mmHg 69%
16:00 -1°C° 0 mm 8 m/s 752 mmHg 80%
17:00 -1°C° 0.1 mm 8 m/s 752 mmHg 82%
18:00 -1°C° 0.1 mm 8 m/s 751 mmHg 84%
19:00 -1°C° 0.1 mm 9 m/s 751 mmHg 86%
20:00 -1°C° 0 mm 9 m/s 750 mmHg 82%
21:00 -1°C° 0 mm 9 m/s 750 mmHg 79%
22:00 -1°C° 0 mm 9 m/s 750 mmHg 75%
23:00 -2°C° 0 mm 10 m/s 749 mmHg 76%

Poimâine, 7 Martie, Duminică

Timp Temperatura Precipitaţii Vânt Presiune Umiditate
00:00 -2°C° 0 mm 10 m/s 749 mmHg 78%
01:00 -2°C° 0 mm 10 m/s 749 mmHg 79%
02:00 -3°C° 0 mm 10 m/s 748 mmHg 84%
03:00 -3°C° 0 mm 10 m/s 748 mmHg 89%
04:00 -3°C° 0 mm 9 m/s 748 mmHg 93%
05:00 -3°C° 0.3 mm 9 m/s 748 mmHg 94%
06:00 -3°C° 0.3 mm 9 m/s 748 mmHg 95%
07:00 -2°C° 0.3 mm 8 m/s 747 mmHg 96%
08:00 -2°C° 0.2 mm 8 m/s 747 mmHg 95%
09:00 -2°C° 0.2 mm 8 m/s 747 mmHg 94%
10:00 -2°C° 0.2 mm 8 m/s 747 mmHg 94%
11:00 -1°C° 0.3 mm 8 m/s 747 mmHg 94%
12:00 -1°C° 0.3 mm 8 m/s 747 mmHg 94%
13:00 -1°C° 0.3 mm 8 m/s 747 mmHg 94%
14:00 -2°C° 0.6 mm 8 m/s 746 mmHg 94%
15:00 -2°C° 0.6 mm 7 m/s 746 mmHg 95%
16:00 -2°C° 0.6 mm 7 m/s 745 mmHg 95%
17:00 -3°C° 0.6 mm 6 m/s 745 mmHg 93%
18:00 -2°C° 0.6 mm 4 m/s 745 mmHg 92%
19:00 -2°C° 0.6 mm 2 m/s 745 mmHg 90%
20:00 -2°C° 0 mm 2 m/s 745 mmHg 89%
21:00 -3°C° 0 mm 2 m/s 745 mmHg 87%
22:00 -3°C° 0 mm 2 m/s 745 mmHg 86%
23:00 -3°C° 0 mm 2 m/s 746 mmHg 85%

8 Martie, Luni

Timp Temperatura Precipitaţii Vânt Presiune Umiditate
00:00 -3°C° 0 mm 2 m/s 746 mmHg 84%
01:00 -4°C° 0 mm 3 m/s 746 mmHg 82%
02:00 -4°C° 0 mm 3 m/s 746 mmHg 80%
03:00 -4°C° 0 mm 3 m/s 746 mmHg 77%
04:00 -4°C° 0 mm 3 m/s 746 mmHg 74%
05:00 -4°C° 0 mm 4 m/s 747 mmHg 75%
06:00 -4°C° 0 mm 4 m/s 747 mmHg 75%
07:00 -3°C° 0 mm 4 m/s 748 mmHg 76%
08:00 -4°C° 0.1 mm 5 m/s 748 mmHg 73%
09:00 -4°C° 0.1 mm 5 m/s 749 mmHg 69%
10:00 -3°C° 0.1 mm 6 m/s 749 mmHg 66%
11:00 -3°C° 0.1 mm 6 m/s 750 mmHg 66%
12:00 -3°C° 0.1 mm 6 m/s 750 mmHg 65%
13:00 -3°C° 0.1 mm 6 m/s 751 mmHg 65%
14:00 -2°C° 0 mm 5 m/s 751 mmHg 66%
15:00 -2°C° 0 mm 5 m/s 751 mmHg 67%
16:00 -3°C° 0 mm 4 m/s 751 mmHg 68%
17:00 -3°C° 0 mm 4 m/s 751 mmHg 70%
18:00 -4°C° 0 mm 3 m/s 752 mmHg 72%
19:00 -3°C° 0 mm 2 m/s 752 mmHg 74%
20:00 -3°C° 0 mm 2 m/s 753 mmHg 73%
21:00 -3°C° 0 mm 2 m/s 753 mmHg 72%
22:00 -3°C° 0 mm 2 m/s 753 mmHg 70%
23:00 -3°C° 0 mm 2 m/s 753 mmHg 71%

9 Martie, Marţi

Timp Temperatura Precipitaţii Vânt Presiune Umiditate
00:00 -1°C° 0 mm 1 m/s 753 mmHg 71%
01:00 -2°C° 0 mm 1 m/s 753 mmHg 71%
02:00 -2°C° 0 mm 1 m/s 753 mmHg 71%
03:00 -2°C° 0 mm 1 m/s 753 mmHg 70%
04:00 -2°C° 0 mm 1 m/s 753 mmHg 69%
05:00 -2°C° 0 mm 1 m/s 753 mmHg 69%
06:00 -2°C° 0 mm 1 m/s 753 mmHg 68%
07:00 -2°C° 0 mm 1 m/s 753 mmHg 67%
08:00 -1°C° 0 mm 1 m/s 753 mmHg 64%
09:00 -1°C° 0 mm 1 m/s 753 mmHg 61%
10:00 0°C° 0 mm 1 m/s 754 mmHg 58%
11:00 0°C° 0 mm 1 m/s 754 mmHg 56%
12:00 -2°C° 0 mm 2 m/s 754 mmHg 55%
13:00 -1°C° 0 mm 2 m/s 754 mmHg 53%
14:00 -1°C° 0 mm 2 m/s 753 mmHg 54%
15:00 -1°C° 0 mm 2 m/s 753 mmHg 55%
16:00 -1°C° 0 mm 2 m/s 752 mmHg 55%
17:00 -2°C° 0 mm 2 m/s 752 mmHg 60%
18:00 -3°C° 0 mm 2 m/s 752 mmHg 65%
19:00 -3°C° 0 mm 2 m/s 752 mmHg 70%
20:00 -4°C° 0 mm 3 m/s 752 mmHg 69%
21:00 -4°C° 0 mm 3 m/s 752 mmHg 68%
22:00 -4°C° 0 mm 3 m/s 752 mmHg 67%
23:00 -4°C° 0 mm 4 m/s 752 mmHg 66%

10 Martie, Miercuri

Timp Temperatura Precipitaţii Vânt Presiune Umiditate
00:00 -4°C° 0 mm 4 m/s 751 mmHg 65%
01:00 -4°C° 0 mm 4 m/s 751 mmHg 63%
02:00 -4°C° 0 mm 4 m/s 751 mmHg 64%
03:00 -4°C° 0 mm 4 m/s 750 mmHg 65%
04:00 -4°C° 0 mm 4 m/s 750 mmHg 66%
05:00 -4°C° 0 mm 4 m/s 750 mmHg 67%
06:00 -4°C° 0 mm 4 m/s 750 mmHg 67%
07:00 -4°C° 0 mm 4 m/s 750 mmHg 67%
08:00 -2°C° 0 mm 4 m/s 749 mmHg 64%
09:00 -1°C° 0 mm 4 m/s 749 mmHg 62%
10:00 0°C° 0 mm 4 m/s 749 mmHg 59%
11:00 0°C° 0 mm 4 m/s 749 mmHg 60%
12:00 +1°C° 0 mm 4 m/s 749 mmHg 61%
13:00 +1°C° 0 mm 5 m/s 749 mmHg 62%
14:00 +1°C° 0 mm 4 m/s 748 mmHg 67%
15:00 +1°C° 0 mm 4 m/s 747 mmHg 72%
16:00 +1°C° 0 mm 4 m/s 746 mmHg 76%
17:00 0°C° 0 mm 4 m/s 746 mmHg 81%
18:00 0°C° 0 mm 4 m/s 745 mmHg 86%
19:00 -1°C° 0 mm 4 m/s 745 mmHg 91%
20:00 -1°C° 0 mm 5 m/s 744 mmHg 90%
21:00 -1°C° 0 mm 5 m/s 744 mmHg 90%
22:00 0°C° 0 mm 5 m/s 743 mmHg 89%
23:00 -1°C° 0 mm 6 m/s 743 mmHg 88%
Arată mai mult

Formular de consimțământ

Meteoprog și furnizorii noștri de servicii pot stoca și accesa date personale, precum cookies, identificatori de dispozitiv sau alte tehnologii similare pe dispozitivul dumneavoastră și procesa astfel de date pentru a personaliza conținutul și reclamele, dar și pentru a oferi caracteristici de social media și pentru a analiza traficul.

  • Stocarea și/sau accesarea informațiilor pe dispozitivul dumneavoastră

    Cookies, identificatori de dispozitiv sau alte informații pot fi stocate sau accesate pe dispozitiv în scopurile indicate mai sus.

  • Reclame și conținut personalizat, evaluarea reclamelor și a conținutului, informații despre audiențe și dezvoltarea produselor

    Reclamele și conținutul pot fi personalizate pe baza unui profil. Pot fi adăugate date suplimentare pentru a personaliza mai bine reclamele și conținutul. Performanța reclamelor și conținutului poate fi măsurată. Pot fi obținute informații despre utilizatorii care au văzut reclamele și conținutul. Aceste date pot fi utilizate pentru a dezvolta sau îmbunătăți experiența utilizatorilor, sistemele și software-ul.

Dând clic pe ‘Sunt de acord’, permiteți utilizarea cookie-urilor menționate, a identificatorilor de dispozitiv, balizelor web sau altor tehnologii similare. Setările pot fi modificate din browser-ul dispozitivului dumneavoastră.

În anumite scopuri, interesele legitime pot prima asupra consimțământului. Puteți citi mai multe informații în acest sens în Politica privind Confidențialitatea Datelor și Cookie.